Header for Extended Forecast Station List Page

Search by: ID | Name | Date | Parm | Value | Avg | % Avg
Sort by: ID | Name | Date | Parm | Value | Avg | % Avg

Enter search or view all records.

Click on id for station plot
#IDNameDateParmValueAvg% Avg
0LEOI1KOOTENAI-AT LEONIA06-27-2022DISCHARGE (KAF)27862415115
1FCFM8NF FLATHEAD-NEAR COLUMBIA FALLS06-27-2022DISCHARGE (KAF)741430172
2WGCM8MF FLATHEAD-NEAR WEST GLACIER06-27-2022DISCHARGE (KAF)716380188
3CFMM8FLATHEAD-AT COLUMBIA FALLS06-27-2022DISCHARGE (KAF)23621584149
4DLGM8CLARK FORK-AT DEER LODGE06-27-2022DISCHARGE (KAF)4337118
5DRMM8CLARK FORK-NR DRUMMOND06-27-2022DISCHARGE (KAF)10510897
6RCCM8ROCK CREEK-NEAR CLINTON06-27-2022DISCHARGE (KAF)9288105
7BONM8BLACKFOOT-NEAR BONNER06-27-2022DISCHARGE (KAF)301212142
8ABOM8CLARK FORK-ABOVE MISSOULA06-27-2022DISCHARGE (KAF)520438119
9BITM8BITTERROOT-NEAR MISSOULA06-27-2022DISCHARGE (KAF)379302126
10BELM8CLARK FORK-BELOW MISSOULA06-27-2022DISCHARGE (KAF)900760118
11STRM8ST. REGIS-NEAR ST. REGIS06-27-2022DISCHARGE (KAF)5939149
12SRGM8CLARK FORK-AT ST REGIS06-27-2022DISCHARGE (KAF)1159989117
13PRTI1PRIEST-NEAR PRIEST RIVER06-27-2022DISCHARGE (KAF)255172148
14SPOW1SPOKANE-AT SPOKANE06-27-2022DISCHARGE (KAF)472422112
15SATI1ST MARIES-NEAR SANTA06-27-2022DISCHARGE (KAF)3317192
16CIBW1COLUMBIA-AT INTL BOUNDARY06-27-2022DISCHARGE (KAF)2889123159125
17LAUW1KETTLE-AT LAURIER06-27-2022DISCHARGE (KAF)395247160
18TONW1OKANOGAN-NEAR TONASKET06-27-2022DISCHARGE (KAF)822415198
19PATW1METHOW-NEAR PATEROS06-27-2022DISCHARGE (KAF)375199189
20ARDW1ENTIAT-NEAR ARDENVOIR06-27-2022DISCHARGE (KAF)9155164
21PESW1WENATCHEE-AT PESHASTIN06-27-2022DISCHARGE (KAF)688378182
22EASW1YAKIMA-AT EASTON06-27-2022DISCHARGE (KAF)697592
23TNAW1TEANAWAY-BELOW FORKS06-27-2022DISCHARGE (KAF)179188
24UMTW1YAKIMA-AT UMTANUM06-27-2022DISCHARGE (KAF)658642103
25CLFW1NACHES-NEAR CLIFFDEL06-27-2022DISCHARGE (KAF)133102130
26NACW1NACHES-NEAR NACHES06-27-2022DISCHARGE (KAF)19522487
27PARW1YAKIMA-NEAR PARKER06-27-2022DISCHARGE (KAF)155135114
28KIOW1YAKIMA-AT KIONA06-27-2022DISCHARGE (KAF)459389118
29CHEI1FALL RIVER-NEAR CHESTER06-27-2022DISCHARGE (KAF)6310162
30ANTI1HENRYS FORK-AT ST. ANTHONY06-27-2022DISCHARGE (KAF)25630385
31TEAI1TETON-NEAR ST. ANTHONY06-27-2022DISCHARGE (KAF)186182102
32REXI1HENRYS FORK-AT REXBURG06-27-2022DISCHARGE (KAF)29430298
33JKSW4SNAKE-NEAR JACKSON06-27-2022DISCHARGE (KAF)94398895
34ALPW4SNAKE-NEAR ALPINE06-27-2022DISCHARGE (KAF)1110115996
35HEII1SNAKE-NEAR HEISE06-27-2022DISCHARGE (KAF)1955218290
36SIFI1SNAKE-AB EAGLE ROCK NR IDAHO FALLS06-27-2022DISCHARGE (KAF)1186133589
37SHYI1SNAKE-NEAR SHELLEY06-27-2022DISCHARGE (KAF)1027122384
38SNAI1SNAKE-AT BLACKFOOT06-27-2022DISCHARGE (KAF)53267279
39BFTI1SNAKE-NEAR BLACKFOOT06-27-2022DISCHARGE (KAF)52064481
40PIHI1PORTNEUF-AT POCATELLO06-27-2022DISCHARGE (KAF)131869
41MILI1SNAKE-AT MILNER06-27-2022DISCHARGE (KAF)0380
42HOTI1BRUNEAU-NEAR HOT SPRINGS06-27-2022DISCHARGE (KAF)242597
43SWAI1SNAKE-BELOW SWAN FALLS06-27-2022DISCHARGE (KAF)1564164895
44HWRI1BIG LOST-AT HOWELL RANCH NEAR CHILLY06-27-2022DISCHARGE (KAF)7452141
45HALI1BIG WOOD-AT HAILEY06-27-2022DISCHARGE (KAF)7464116
46BIGI1BOISE-AT GLENWOOD BRIDGE06-27-2022DISCHARGE (KAF)195190103
47PARI1BOISE-NEAR PARMA06-27-2022DISCHARGE (KAF)220193114
48EMMI1PAYETTE-NEAR EMMETT06-27-2022DISCHARGE (KAF)448352127
49WSRI1WEISER-NEAR WEISER06-27-2022DISCHARGE (KAF)5552107
50WEII1SNAKE-AT WEISER06-27-2022DISCHARGE (KAF)25102452102
51WHBI1SALMON-AT WHITEBIRD06-27-2022DISCHARGE (KAF)18451510122
52TRYO3GRANDE RONDE-TROY06-27-2022DISCHARGE (KAF)399245163
53ANAW1SNAKE-NEAR ANATONE06-27-2022DISCHARGE (KAF)52234824108
54ORFI1CLEARWATER-AT OROFINO06-27-2022DISCHARGE (KAF)1008692146
55SPDI1CLEARWATER-AT SPALDING06-27-2022DISCHARGE (KAF)29462289129
56TCHW1WALLA WALLA-NEAR TOUCHET06-27-2022DISCHARGE (KAF)469521
57GIBO3UMATILLA-NEAR GIBBON06-27-2022DISCHARGE (KAF)1312108
58PDTO3UMATILLA-AT PENDLETON06-27-2022DISCHARGE (KAF)3913287
59MYKO3MCKAY CREEK-NEAR PILOT ROCK06-27-2022DISCHARGE (KAF)811115
60UMAO3UMATILLA-NEAR UMATILLA06-27-2022DISCHARGE (KAF)182769
61MONO3NF JOHN DAY-AT MONUMENT06-27-2022DISCHARGE (KAF)9639244
62SERO3JOHN DAY-AT SERVICE CK06-27-2022DISCHARGE (KAF)10461172
63MODO3DESCHUTES-AT MOODY NR BIGGS06-27-2022DISCHARGE (KAF)1069108998
64PITW1KLICKITAT-NEAR PITT06-27-2022DISCHARGE (KAF)238201118
65HODO3HOOD-NEAR TUCKER BRIDGE06-27-2022DISCHARGE (KAF)10090112
66UNDW1WHITE SALMON-NEAR UNDERWOOD06-27-2022DISCHARGE (KAF)191163117
67LYDM8KOOTENAI-LIBBY DAM06-27-2022INFLOW (KAF)33672312146
68HHWM8SF FLATHEAD-HUNGRY HORSE DAM06-27-2022INFLOW (KAF)579367158
69KERM8FLATHEAD-SELI’Š KSANKA QLISPE’ DAM06-27-2022INFLOW (KAF)27131880144
70NOXM8CLARK FORK-NOXON RAPIDS DAM06-27-2022INFLOW (KAF)45183300137
71CABI1CLARK FORK-CABINET GORGE DAM06-27-2022INFLOW (KAF)49793635137
72ALFW1PEND OREILLE-ALBENI FALLS DAM06-27-2022INFLOW (KAF)51873658142
73COEI1COEUR D ALENE-COEUR D ALENE LAKE06-27-2022INFLOW (KAF)410253162
74LLKW1SPOKANE-AT LONGLAKE06-27-2022INFLOW (KAF)667572117
75GCDW1COLUMBIA-GRAND COULEE DAM06-27-2022INFLOW (KAF)3008822064136
76CHJW1COLUMBIA-CHIEF JOSEPH DAM06-27-2022INFLOW (KAF)2893522195130
77WELW1COLUMBIA-WELLS DAM06-27-2022INFLOW (KAF)3019122987131
78CHDW1CHELAN-LAKE CHELAN DAM06-27-2022INFLOW (KAF)811344236
79RRHW1COLUMBIA-ROCKY REACH DAM06-27-2022INFLOW (KAF)3101823643131
80WANW1COLUMBIA-WANAPUM DAM06-27-2022INFLOW (KAF)3214523956134
81PRWW1COLUMBIA-PRIEST RAPIDS DAM06-27-2022INFLOW (KAF)3216624068134
82KEDW1YAKIMA-KEECHELUS LAKE06-27-2022INFLOW (KAF)4027147
83KADW1KACHESS-KACHESS DAM06-27-2022INFLOW (KAF)3822168
84CLUW1CLE ELUM-CLE ELUM LAKE06-27-2022INFLOW (KAF)20197207
85BUDW1BUMPING-BUMPING LAKE DAM06-27-2022INFLOW (KAF)3726141
86RILW1TIETON-RIMROCK LAKE NEAR RIMROCK06-27-2022INFLOW (KAF)10680133
87IPDI1HENRYS FORK-ISLAND PARK DAM06-27-2022INFLOW (KAF)11813488
88JLKW4SNAKE-JACKSON LAKE AT DAM06-27-2022INFLOW (KAF)217206106
89PLDI1SF SNAKE-PALISADES DAM06-27-2022INFLOW (KAF)1425149795
90RIDI1WILLOW CREEK-RIRIE DAM06-27-2022INFLOW (KAF)2638
91AFRI1SNAKE-AMERICAN FALLS RESERVOIR06-27-2022INFLOW (KAF)1074118291
92MACI1BIG LOST-MACKAY RESERVOIR NEAR MACKAY06-27-2022INFLOW (KAF)8558146
93MAGI1BIG WOOD-MAGIC DAM06-27-2022INFLOW (KAF)3232101
94LWRI1LITTLE WOOD-LITTLE WOOD DAM06-27-2022INFLOW (KAF)131493
95OWYO3OWYHEE-OWYHEE DAM06-27-2022INFLOW (KAF)486278
96ARAI1SF BOISE-ANDERSON RANCH DAM06-27-2022INFLOW (KAF)758589
97LUCI1BOISE-LUCKY PEAK DAM06-27-2022INFLOW (KAF)570543105
98WRMO3MALHEUR-WARM SPRINGS DAM06-27-2022INFLOW (KAF)85163
99BERO3MALHEUR-AGENCY VALLEY DAM06-27-2022INFLOW (KAF)71261
100BULO3BULLY CREEK-BULLY CREEK DAM06-27-2022INFLOW (KAF)MMM
101CSDI1NF PAYETTE-CASCADE DAM06-27-2022INFLOW (KAF)7666114
102DEDI1DEADWOOD-NEAR LOWMAN06-27-2022INFLOW (KAF)232692
103BRNI1SNAKE-BROWNLEE DAM06-27-2022INFLOW (KAF)26342559103
104DWRI1NF CLEARWATER-DWORSHAK DAM06-27-2022INFLOW (KAF)592390152
105LGDW1SNAKE-LOWER GRANITE DAM06-27-2022INFLOW (KAF)81697293112
106LGSW1SNAKE-LITTLE GOOSE DAM06-27-2022INFLOW (KAF)81457284112
107LMNW1SNAKE-LOWER MONUMENTAL DAM06-27-2022INFLOW (KAF)81847279112
108IHDW1SNAKE-ICE HARBOR DAM06-27-2022INFLOW (KAF)81907292112
109MCDW1COLUMBIA-MCNARY DAM06-27-2022INFLOW (KAF)4117332130128
110JDAO3COLUMBIA-JOHN DAY DAM06-27-2022INFLOW (KAF)4171831903131
111TDAO3COLUMBIA-THE DALLES DAM06-27-2022INFLOW (KAF)4221432357130
112BONO3COLUMBIA-BONNEVILLE DAM06-27-2022INFLOW (KAF)4281133355128
113HOPI1PEND OREILLE-PEND OREILLE LAKE NR HOPE06-27-2022LAKE ELEVATION (FT)MMM
114BFEI1KOOTENAI-AT BONNERS FERRY06-27-2022STAGE (FT)MMM
115SJMI1ST JOE-AT ST MARIES06-27-2022STAGE (FT)MMM